This is the latest recevied weather packets stored in our database for station/object KE0PRS. If no packets are shown the sender has not sent any weather packets the latest 10 day(s).
| Time | Temp. | Humidity | Pressure | Rain* | Wind** | Luminosity | Snow |
|---|---|---|---|---|---|---|---|
| 1777427446 | 9.44° C | 70% | 1019 hPa | 0 mm | - | 0 W/m² | - |
| 1777427141 | 9.44° C | 70% | 1019 hPa | 0 mm | - | 0 W/m² | - |
| 1777426839 | 10° C | 70% | 1018.9 hPa | 0 mm | - | 0 W/m² | - |
| 1777426536 | 10° C | 69% | 1018.6 hPa | 0 mm | - | 1 W/m² | - |
| 1777426232 | 10° C | 68% | 1018.5 hPa | 0 mm | - | 2 W/m² | - |
| 1777425927 | 10° C | 68% | 1018.3 hPa | 0 mm | - | 3 W/m² | - |
| 1777425622 | 10.56° C | 67% | 1018.4 hPa | 0 mm | - | 5 W/m² | - |
| 1777425319 | 10.56° C | 66% | 1018.6 hPa | 0 mm | - | 8 W/m² | - |
| 1777425015 | 10.56° C | 66% | 1018.4 hPa | 0 mm | - | 11 W/m² | - |
| 1777424711 | 11.11° C | 65% | 1018.3 hPa | 0 mm | - | 14 W/m² | - |
| 1777424406 | 11.11° C | 65% | 1017.8 hPa | 0 mm | - | 19 W/m² | - |
| 1777424102 | 11.11° C | 65% | 1018 hPa | 0 mm | - | 23 W/m² | - |
| 1777423800 | 11.67° C | 64% | 1017.8 hPa | 0 mm | - | 26 W/m² | - |
| 1777423496 | 11.67° C | 63% | 1017.6 hPa | 0 mm | - | 29 W/m² | - |
| 1777423191 | 11.67° C | 63% | 1017.6 hPa | 0 mm | - | 33 W/m² | - |
| 1777422890 | 11.67° C | 63% | 1017.6 hPa | 0 mm | - | 37 W/m² | - |
| 1777422587 | 11.67° C | 63% | 1017.6 hPa | 0 mm | - | 38 W/m² | - |
| 1777422283 | 12.22° C | 62% | 1017.5 hPa | 0 mm | - | 48 W/m² | - |
| 1777421983 | 12.22° C | 61% | 1017.6 hPa | 0 mm | - | 71 W/m² | - |
| 1777421678 | 12.78° C | 60% | 1017.6 hPa | 0 mm | - | 83 W/m² | - |
| 1777421372 | 12.78° C | 60% | 1017.6 hPa | 0 mm | - | 92 W/m² | - |
| 1777421070 | 12.78° C | 59% | 1017.5 hPa | 0 mm | - | 101 W/m² | - |
| 1777420766 | 13.33° C | 58% | 1017.6 hPa | 0 mm | - | 109 W/m² | - |
| 1777420462 | 13.33° C | 58% | 1017.6 hPa | 0 mm | - | 119 W/m² | - |
| 1777420160 | 13.33° C | 58% | 1017.5 hPa | 0 mm | - | 129 W/m² | - |
* Rain latest hour (hover to see other rain measurements)
** Current wind speed in m/s (hover to see current wind gust speed)